This demonstration page uses our WeatherBlox Daily Observations layout. Learn more.

Left ArrowRight Arrow

41.55636, -103.73856

Hourly Observations for June 20, 2019

Temp ( °F °C ) Dew Point ( °F °C ) Humidity (%) Winds ( mph kmh ) Pressure ( in mb ) Visibility ( mi km ) Precip ( " mm )
12:57 am 00:57 Mostly Cloudy 66 18.8 52 11.2 62 62 S 15 24 29.68 1005 10 16 N/A
1:58 am 01:58 Partly Cloudy 63 17.4 54 12.2 72 72 S 9 15 29.68 1005 10 16 N/A
2:58 am 02:58 Partly Cloudy 60 15.5 53 11.8 79 79 SSW 12 19 29.66 1004 10 16 N/A
3:58 am 03:58 Mostly Cloudy 58 14.3 52 11 81 81 SSW 13 20 29.66 1004 10 16 N/A
4:58 am 04:58 Clear 59 14.9 50 10.1 73 73 SW 15 24 29.65 1004 10 16 N/A
5:58 am 05:58 Mostly Clear 60 15.8 50 9.9 68 68 SW 20 31 29.64 1004 10 16 N/A
6:58 am 06:58 Partly Cloudy 59 14.9 40 4.4 50 50 WNW 31 50 29.66 1005 10 16 N/A
7:58 am 07:58 Mostly Clear 55 12.7 49 9.4 81 81 NW 22 35 29.72 1007 10 16 N/A
8:58 am 08:58 Clear 52 11 46 7.5 79 79 NNW 17 28 29.76 1008 10 16 N/A
9:58 am 09:58 Clear 51 10.3 45 7.1 81 81 NNW 7 11 29.75 1008 10 16 N/A
10:58 am 10:58 Clear 47 8.6 45 7.3 92 92 W 5 7 29.76 1008 10 16 N/A
11:58 am 11:58 Sunny 47 8.3 45 7.1 92 92 WNW 8 13 29.78 1009 10 16 N/A
12:58 pm 12:58 Sunny 51 10.7 47 8.4 86 86 NW 7 11 29.79 1009 10 16 N/A
1:58 pm 13:58 Sunny 55 13 47 8.2 73 73 NW 5 7 29.80 1009 10 16 N/A
2:58 pm 14:58 Sunny 59 14.8 46 7.8 63 63 SE 5 7 29.78 1009 10 16 N/A
3:58 pm 15:58 Sunny 62 16.4 47 8.5 60 60 SSE 8 13 29.76 1008 10 16 N/A
4:58 pm 16:58 Sunny 66 18.8 46 7.8 49 49 SSE 6 9 29.73 1007 10 16 N/A
5:58 pm 17:58 Sunny 69 20.3 48 8.7 47 47 S 12 19 29.71 1006 10 16 N/A
6:58 pm 18:58 Sunny 72 22 50 10.2 47 47 S 16 26 29.68 1005 10 16 N/A
7:58 pm 19:58 Sunny 73 23 51 10.3 45 45 S 16 26 29.66 1005 10 16 N/A
8:58 pm 20:58 Sunny 74 23.5 52 11 45 45 S 20 31 29.64 1004 10 16 N/A
9:58 pm 21:58 Mostly Sunny 73 22.8 50 9.9 44 44 S 29 46 29.63 1003 10 16 N/A
10:58 pm 22:58 Mostly Sunny 75 23.8 45 7.4 35 35 SSW 24 39 29.60 1002 10 16 N/A
11:58 pm 23:58 Mostly Cloudy 72 22.2 50 10 46 46 SSW 17 28 29.61 1003 10 16 N/A

Powered by AerisWeather